Regional Weather Roundup
Issued by NWS Sioux Falls, SD

Home | Current Version | Previous Version | Text Only | Print | Product List | Glossary On
Versions: 1 2 3 4 5 6 7 8 9 10 11 12 13 14 15 16 17 18 19 20 21 22 23 24 25 26 27 28 29 30 31 32 33 34 35 36 37 38 39 40 41 42 43 44 45 46 47 48 49 50
000
ASUS43 KFSD 291210
RWRFSD

WEATHER ROUNDUP FOR SE SOUTH DAKOTA/SW MINNESOTA/NW IOWA
NATIONAL WEATHER SERVICE SIOUX FALLS SD
700 AM CDT FRI APR 29 2016

NOTE: "FAIR" INDICATES FEW OR NO CLOUDS BELOW 12,000 FEET WITH NO
SIGNIFICANT WEATHER AND OR OBSTRUCTIONS TO VISIBILITY.


SDZ038>040-050-052>070-291300-
SOUTHEAST SOUTH DAKOTA

CITY           SKY/WX    TMP DP  RH WIND       PRES   REMARKS
BROOKINGS      PTCLDY    35  34  96 NE3       30.15R FOG
CHAMBERLAIN    CLOUDY    40  37  92 E6        30.15R
6HR MIN TEMP:  40; 6HR MAX TEMP:  42;

HURON          CLOUDY    38  37  97 NE10      30.16F
6HR MIN TEMP:  34; 6HR MAX TEMP:  39;

MADISON        CLOUDY    37  37 100 E7        30.16R
MITCHELL       CLOUDY    40  37  89 N3        30.17R
6HR MIN TEMP:  39; 6HR MAX TEMP:  40;

SIOUX FALLS    CLOUDY    39  37  92 NE7       30.15R
6HR MIN TEMP:  39; 6HR MAX TEMP:  40;

WINNER         CLOUDY    40  36  86 E8        30.12S
YANKTON        CLOUDY    39  37  93 N6        30.13S
$$

MNZ071-072-080-081-089-090-097-098-291300-
SOUTHWEST MINNESOTA

CITY           SKY/WX    TMP DP  RH WIND       PRES   REMARKS
FAIRMONT       CLOUDY    39  28  65 N5        30.16R
JACKSON        CLOUDY    37  34  87 NE3       30.15S FOG
LUVERNE        CLOUDY    37  34  87 NE6       30.16R
MARSHALL       CLOUDY    36  36 100 NE5       30.18S FOG
6HR MIN TEMP:  34; 6HR MAX TEMP:  39;

MONTEVIDEO     CLEAR     36  36 100 CALM      30.21R FOG
PIPESTONE      CLOUDY    37  36  93 CALM      30.15R
REDWOOD FALLS  CLOUDY    38  36  92 CALM      30.19R
TRACY          CLOUDY    37  37  99 NE7       30.18R
WINDOM         CLOUDY    37  36  93 CALM      30.16R
WORTHINGTON    CLOUDY    38  35  89 N5        30.16R
$$

IAZ001>003-012>014-020>022-031-032-NEZ013-014-SDZ071-291300-
NORTHWEST IOWA

CITY           SKY/WX    TMP DP  RH WIND       PRES   REMARKS
CHEROKEE       CLOUDY    40  40 100 N3        30.14R FOG
DENISON        CLOUDY    43  41  93 N10       30.08F
ESTHERVILLE    CLOUDY    38  37  97 NE9       30.14R
LE MARS        CLOUDY    41  39  93 CALM      30.15R FOG
ORANGE CITY    CLOUDY    39  37  93 CALM      30.14R
SHELDON        CLOUDY    39  39 100 N9        30.12S FOG
SIOUX CITY     CLOUDY    43  38  82 NE6       30.14S
6HR MIN TEMP:  43; 6HR MAX TEMP:  44;

SPENCER        CLOUDY    40  36  86 NE9       30.13F
6HR MIN TEMP:  40; 6HR MAX TEMP:  40;

STORM LAKE     CLOUDY    41  39  93 N6        30.13R
$$

ABBREVIATIONS USED IN REMARKS
   TC - TEMPERATURE IN CELSIUS
  WCI - WIND CHILL INDEX
   HX - HEAT INDEX
  VSB - VISIBILITY





USA.gov is the U.S. government's official web portal to all federal, state and local government web resources and services.